Notices

What's New in latest Release from April 7th, 2021:

- Updated Glossary, including Speed of Maximum Gust, and Total Hourly Precipitation

- Updated national and regional climate services offices contacts and prices information

- Addition of station inventory lists for 1981-2010, 1971-2000, and 1961-1990 Normals.

If you haven't already, please take our survey and provide feedback about our website: https://eccc.sondage-survey.ca/f/LanguageSelection.aspx?s=442ca660-fcf1-47c0-95a9-59707d6fd709

Hourly Data Report for May 25, 2003

TORONTO CITY
ONTARIO

43°40'00.000" N
79°24'00.000" W
112.50 m
6158355
71508
XTO

Download Data

Hourly Data (May 2003)
Hourly Data Report for May 25, 2003
TIME
LST
Temp Definition
°C
Dew Point Definition
°C
Rel Hum Definition
%
Precip. Amount Definition
mm

Wind Dir Definition
10's deg

Wind Spd Definition
km/h
Visibility Definition
km
Stn Press Definition
kPa
Hmdx Definition


Wind Chill Definition


Weather Definition


00:00 9.0 7.8 92   LegendMM LegendMM LegendMM 100.00     LegendNANA
01:00 9.8 8.6 92   LegendMM LegendMM LegendMM 99.96     LegendNANA
02:00 10.3 8.7 90   LegendMM LegendMM LegendMM 99.94     LegendNANA
03:00 10.1 8.4 89   LegendMM LegendMM LegendMM 99.94     LegendNANA
04:00 9.3 8.1 92   LegendMM LegendMM LegendMM 99.93     LegendNANA
05:00 9.8 8.4 91   LegendMM LegendMM LegendMM 99.96     LegendNANA
06:00 10.1 8.7 91   LegendMM LegendMM LegendMM 100.02     LegendNANA
07:00 10.7 9.3 91   LegendMM LegendMM LegendMM 100.03     LegendNANA
08:00 12.7 9.5 81   LegendMM LegendMM LegendMM 100.02     LegendNANA
09:00 12.3 9.1 81   LegendMM LegendMM LegendMM 100.04     LegendNANA
10:00 14.2 10.6 79   LegendMM LegendMM LegendMM 100.05     LegendNANA
11:00 14.6 10.2 75   LegendMM LegendMM LegendMM 100.07     LegendNANA
12:00 12.8 9.1 78   LegendMM LegendMM LegendMM 100.11     LegendNANA
13:00 14.1 8.9 71   LegendMM LegendMM LegendMM 100.09     LegendNANA
14:00 15.8 7.8 59   LegendMM LegendMM LegendMM 100.05     LegendNANA
15:00 13.1 7.6 69   LegendMM LegendMM LegendMM 100.08     LegendNANA
16:00 14.8 7.6 62   LegendMM LegendMM LegendMM 100.04     LegendNANA
17:00 15.5 7.3 58   LegendMM LegendMM LegendMM 100.04     LegendNANA
18:00 15.1 6.1 55   LegendMM LegendMM LegendMM 100.04     LegendNANA
19:00 14.0 8.2 68   LegendMM LegendMM LegendMM 100.09     LegendNANA
20:00 12.6 8.3 75   LegendMM LegendMM LegendMM 100.10     LegendNANA
21:00 12.4 8.5 77   LegendMM LegendMM LegendMM 100.15     LegendNANA
22:00 11.7 8.0 78   LegendMM LegendMM LegendMM 100.17     LegendNANA
23:00 10.7 7.8 82   LegendMM LegendMM LegendMM 100.19     LegendNANA

Notes on Data Quality.

Legend

  • E = Estimated
  • M = Missing
  • NA = Not Available*
  • [empty] = Indicates an unobserved value
Date modified: